Total_Precipitation_Accumulation
0.28 0.24 0.22 0.21 0.18 0.15 0.09 0.03 0.01 0.00 0.00 0.01 0.02 0.02 0.02 0.02 0.02 0.02 0.02 0.03 0.03 0.03 0.03 0.05 0.05 0.05 0.04
0.29 0.23 0.17 0.09 0.05 0.03 0.01 0.00 0.00 0.00 0.00 0.00 0.02 0.03 0.04 0.05 0.06 0.07 0.07 0.06 0.07 0.08 0.07 0.07 0.07 0.09 0.09
0.15 0.11 0.07 0.03 0.00 0.00 0.00 0.00 0.00 0.00 0.00 0.00 0.01 0.02 0.02 0.03 0.06 0.08 0.09 0.08 0.08 0.07 0.08 0.08 0.08 0.10 0.12
0.00 0.00 0.00 0.00 0.00 0.00 0.00 0.00 0.00 0.00 0.00 0.00 0.00 0.01 0.03 0.03 0.04 0.05 0.06 0.07 0.08 0.09 0.10 0.09 0.09 0.11 0.14
0.00 0.00 0.00 0.00 0.00 0.00 0.00 0.00 0.00 0.00 0.00 0.00 0.00 0.00 0.01 0.04 0.06 0.07 0.07 0.10 0.13 0.16 0.16 0.15 0.14 0.14 0.15
0.00 0.00 0.00 0.00 0.00 0.00 0.00 0.00 0.01 0.00 0.00 0.00 0.00 0.00 0.00 0.01 0.05 0.07 0.07 0.12 0.17 0.20 0.20 0.20 0.19 0.17 0.17
0.00 0.00 0.00 0.00 0.00 0.00 0.00 0.01 0.01 0.01 0.02 0.01 0.00 0.00 0.00 0.00 0.05 0.10 0.13 0.20 0.29 0.31 0.28 0.24 0.19 0.14 0.11
0.00 0.00 0.00 0.00 0.00 0.01 0.02 0.02 0.01 0.00 0.00 0.02 0.01 0.00 0.01 0.01 0.05 0.13 0.20 0.25 0.29 0.29 0.29 0.30 0.28 0.25 0.22
0.00 0.00 0.00 0.01 0.01 0.02 0.01 0.02 0.02 0.01 0.00 0.01 0.01 0.02 0.02 0.01 0.04 0.17 0.24 0.24 0.25 0.24 0.24 0.25 0.28 0.30 0.24
0.00 0.00 0.00 0.01 0.01 0.02 0.02 0.04 0.05 0.06 0.01 0.04 0.03 0.03 0.03 0.01 0.00 0.02 0.11 0.16 0.26 0.31 0.34 0.31 0.30 0.22 0.17
0.00 0.00 0.00 0.00 0.00 0.00 0.01 0.01 0.05 0.06 0.05 0.17 0.09 0.01 0.04 0.02 0.01 0.03 0.08 0.19 0.26 0.30 0.29 0.26 0.22 0.17 0.16
0.00 0.00 0.00 0.00 0.00 0.00 0.00 0.01 0.02 0.06 0.03 0.10 0.16 0.06 0.13 0.07 0.02 0.03 0.09 0.13 0.16 0.24 0.29 0.23 0.14 0.09 0.05
0.00 0.00 0.00 0.00 0.00 0.00 0.00 0.00 0.00 0.00 0.01 0.03 0.10 0.09 0.11 0.09 0.06 0.05 0.10 0.11 0.17 0.19 0.20 0.14 0.07 0.04 0.04
0.00 0.00 0.00 0.00 0.00 0.00 0.01 0.00 0.01 0.00 0.00 0.01 0.02 0.06 0.05 0.05 0.07 0.06 0.08 0.11 0.16 0.17 0.07 0.03 0.02 0.01 0.02
0.00 0.00 0.00 0.00 0.00 0.00 0.02 0.02 0.02 0.01 0.01 0.00 0.01 0.03 0.05 0.06 0.04 0.04 0.07 0.09 0.15 0.15 0.05 0.01 0.00 0.00 0.00
0.00 0.00 0.01 0.01 0.01 0.01 0.01 0.03 0.03 0.01 0.01 0.01 0.02 0.03 0.03 0.02 0.03 0.03 0.03 0.06 0.10 0.13 0.04 0.00 0.00 0.00 0.00
0.01 0.01 0.01 0.01 0.02 0.02 0.01 0.02 0.01 0.01 0.01 0.03 0.05 0.05 0.04 0.03 0.04 0.03 0.02 0.01 0.03 0.06 0.02 0.00 0.00 0.00 0.01